Weather History for CYZR - March, 2013

Change the Weather History Date:

Monday, March 11, 2013

  Actual Average Record
Temperature  
Mean Temperature 38 °F -  
Max Temperature 50 °F 39 °F 67 °F (1977)
Min Temperature 25 °F 23 °F 3 °F (1960)
Degree Days  
Heating Degree Days 28    
Moisture  
Dew Point 43 °F    
Average Humidity 82    
Maximum Humidity 100    
Minimum Humidity 59    
Precipitation  
Precipitation 0.00 in - - ()
Sea Level Pressure  
Sea Level Pressure 29.73 in    
Wind  
Wind Speed 13 mph ()    
Max Wind Speed 22 mph    
Max Gust Speed 32 mph    
Visibility 8.7 miles    
Events Rain    
Averages and records for this station are not official NWS values.
T = Trace of Precipitation, MM = Missing Value Source: Averaged Metar Reports

Daily Weather History Graph

Daily Weather History Graph

Search for Another Location

Airport or City:

Trip Planner

Search our weather history database for the weather conditions in past years. The results will help you decide how hot, cold, wet, or windy it might be!

Date:

Astronomy

Mar. 11, 2013 Rise Set
Actual Time 7:47 AM EDT 7:31 PM EDT
Civil Twilight 7:19 AM EDT 7:59 PM EDT
Nautical Twilight 6:46 AM EDT 8:32 PM EDT
Astronomical Twilight 6:13 AM EDT 9:05 PM EDT
Moon 7:20 AM EDT (3/11) 7:43 PM EDT (3/11)
Length of Visible Light 12h 39m
Length of Day
11h 43m
Waning Crescent, 0% of the Moon is Illuminated
Mar 11
Waning Crescent
Mar 11
New
Mar 19
First Quarter
Mar 27
Full
Apr 3
Last Quarter

Hourly Weather History & Observations

Time (EDT) Temp. Windchill Dew Point Humidity Pressure Visibility Wind Dir Wind Speed Gust Speed Precip Events Conditions
12:00 AM 48.2 °F - 37.4 °F 66% 29.82 in 9.0 mi SE 11.5 mph - N/A   Overcast
1:00 AM 48.2 °F - 37.4 °F 66% 29.81 in 9.0 mi SSE 10.4 mph - N/A   Overcast
2:00 AM 27 °F - 24 °F 86% 30.24 in - South 3.5 mph - -  
2:00 AM 48.2 °F - 35.6 °F 62% 29.82 in 9.0 mi South 8.1 mph - N/A   Overcast
3:00 AM 48.2 °F - 37.4 °F 66% 29.79 in 9.0 mi SSE 10.4 mph - N/A   Overcast
3:54 AM 48.2 °F - 37.4 °F 66% 29.79 in 9.0 mi South 9.2 mph - N/A Rain Light Rain
4:00 AM 50.0 °F - 37.4 °F 62% 29.79 in 9.0 mi South 12.7 mph - N/A Rain Light Rain
5:00 AM 51.8 °F - 44.6 °F 76% 29.76 in 9.0 mi South 19.6 mph 28.8 mph N/A Rain Light Rain
5:12 AM 51.8 °F - 44.6 °F 76% 29.77 in 9.0 mi South 21.9 mph 29.9 mph N/A   Overcast
5:18 AM 51.8 °F - 46.4 °F 82% 29.76 in 9.0 mi South 21.9 mph 29.9 mph N/A Rain Light Rain
5:43 AM 50.0 °F - 46.4 °F 87% 29.77 in 5.0 mi South 19.6 mph 28.8 mph N/A Rain Light Rain
5:53 AM 50.0 °F - 48.2 °F 94% 29.77 in 6.0 mi South 16.1 mph 27.6 mph N/A Rain Light Rain
6:00 AM 50.0 °F - 48.2 °F 94% 29.77 in 8.0 mi South 15.0 mph 23.0 mph N/A Rain Light Rain
6:43 AM 50.0 °F - 44.6 °F 82% 29.75 in 9.0 mi South 17.3 mph 24.2 mph N/A   Overcast
7:00 AM 48.2 °F - 44.6 °F 87% 29.75 in 9.0 mi South 17.3 mph - N/A Rain Light Rain
8:00 AM 31 °F - 27 °F 80% 30.20 in - SSW 5.8 mph - -  
8:00 AM 48.2 °F - 44.6 °F 87% 29.77 in 9.0 mi South 16.1 mph 23.0 mph N/A Rain Light Rain
8:32 AM 48.2 °F - 44.6 °F 87% 29.74 in 9.0 mi South 17.3 mph 23.0 mph N/A   Overcast
8:40 AM 48.2 °F - 44.6 °F 87% 29.73 in 9.0 mi South 19.6 mph 25.3 mph N/A Rain Light Rain
9:00 AM 48.2 °F - 44.6 °F 87% 29.75 in 9.0 mi South 16.1 mph 23.0 mph N/A   Mostly Cloudy
9:05 AM 48.2 °F - 44.6 °F 87% 29.75 in 9.0 mi South 15.0 mph 23.0 mph N/A Rain Light Rain
9:29 AM 48.2 °F - 46.4 °F 93% 29.75 in 9.0 mi South 17.3 mph 24.2 mph N/A   Overcast
10:00 AM 48.2 °F - 46.4 °F 93% 29.74 in 9.0 mi South 18.4 mph 25.3 mph N/A   Mostly Cloudy
10:24 AM 50.0 °F - 46.4 °F 87% 29.74 in 9.0 mi SSW 17.3 mph 29.9 mph N/A Rain Light Rain
10:37 AM 50.0 °F - 46.4 °F 87% 29.73 in 9.0 mi South 15.0 mph 23.0 mph N/A   Overcast
10:52 AM 50.0 °F - 46.4 °F 87% 29.72 in 9.0 mi South 18.4 mph 31.1 mph N/A Rain Light Rain
11:00 AM 50.0 °F - 46.4 °F 87% 29.71 in 9.0 mi South 21.9 mph 27.6 mph N/A Rain Light Rain
11:11 AM 51.8 °F - 48.2 °F 88% 29.71 in 9.0 mi SSW 20.7 mph 32.2 mph N/A   Overcast
11:13 AM 51.8 °F - 48.2 °F 88% 29.71 in 9.0 mi South 19.6 mph 29.9 mph N/A Rain Light Rain
11:23 AM 51.8 °F - 48.2 °F 88% 29.71 in 9.0 mi SSW 21.9 mph 31.1 mph N/A   Overcast
12:00 PM 51.8 °F - 46.4 °F 82% 29.69 in 9.0 mi SSW 18.4 mph 31.1 mph N/A   Overcast
1:00 PM 53.6 °F - 42.8 °F 67% 29.66 in 9.0 mi South 21.9 mph 31.1 mph N/A   Mostly Cloudy
1:44 PM 51.8 °F - 42.8 °F 71% 29.65 in 9.0 mi South 19.6 mph 29.9 mph N/A Rain Light Rain
2:00 PM 42 °F - 32 °F 59% 30.17 in - South 4.6 mph - -  
2:00 PM 50.0 °F - 44.6 °F 82% 29.64 in 8.0 mi South 20.7 mph 26.5 mph N/A Rain Light Rain
3:00 PM 48.2 °F - 44.6 °F 87% 29.60 in 9.0 mi SSE 17.3 mph 24.2 mph N/A Rain Light Rain
4:00 PM 46.4 °F 39.5 °F 46.4 °F 100% 29.56 in 6.0 mi SSE 17.3 mph 25.3 mph N/A Rain Light Rain
5:00 PM 48.2 °F - 46.4 °F 93% 29.49 in 9.0 mi SSE 21.9 mph - N/A Rain Light Rain
6:00 PM 48.2 °F - 46.4 °F 93% 29.48 in 9.0 mi South 13.8 mph 21.9 mph N/A Rain Light Rain
6:12 PM 48.2 °F - 46.4 °F 93% 29.49 in 9.0 mi SSW 16.1 mph 25.3 mph N/A Rain Light Rain
6:54 PM 50.0 °F - 46.4 °F 87% 29.52 in 9.0 mi WSW 17.3 mph 31.1 mph N/A   Overcast
6:58 PM 50.0 °F - 46.4 °F 87% 29.51 in 9.0 mi WSW 15.0 mph 31.1 mph N/A   Overcast
7:00 PM 50.0 °F - 46.4 °F 87% 29.51 in 9.0 mi WSW 12.7 mph 26.5 mph N/A   Overcast
8:00 PM 38 °F - 32 °F 73% 30.14 in - South 4.6 mph - -  
8:00 PM 46.4 °F 41.1 °F 42.8 °F 87% 29.55 in 9.0 mi SSW 11.5 mph - N/A   Partly Cloudy
9:00 PM 46.4 °F 39.5 °F 39.2 °F 76% 29.57 in 9.0 mi SSW 17.3 mph 24.2 mph N/A   Mostly Cloudy
10:00 PM 44.6 °F 38.8 °F 37.4 °F 76% 29.58 in 9.0 mi SW 11.5 mph - N/A   Mostly Cloudy
11:00 PM 42.8 °F 35.4 °F 35.6 °F 76% 29.63 in 9.0 mi WSW 15.0 mph 23.0 mph N/A   Mostly Cloudy